AirNav   Everest Fuels
 
 483 users online  

2C5 Almena Airport
Paw Paw, Michigan, USA

GOING TO PAW PAW?


FAA INFORMATION EFFECTIVE 26 MARCH 2020

Location

FAA Identifier: 2C5
Lat/Long: 42-15-10.7450N 085-51-05.9550W
42-15.179083N 085-51.099250W
42.2529847,-85.8516542
(estimated)
Elevation: 748 ft. / 228 m (estimated)
Variation: 03W (1985)
From city: 3 miles NE of PAW PAW, MI
Time zone: UTC -4 (UTC -5 during Standard Time)
Zip code: 49079

Airport Operations

Airport use: Open to the public
Activation date: 09/1979
Control tower: no
ARTCC: CHICAGO CENTER
FSS: LANSING FLIGHT SERVICE STATION
NOTAMs facility: LAN (NOTAM-D service available)
Attendance: IREG
Wind indicator: yes
Segmented circle: no

Airport Communications

CTAF: 122.9
WX ASOS at AZO (13 nm E): 127.25 (269-459-3391)
WX AWOS-3 at LWA (19 nm W): 118.025 (269-637-7016)

Nearby radio navigation aids

VOR radial/distance  VOR name  Freq  Var
AZOr275/13.3KALAMAZOO VOR/DME109.0001W
ELXr062/13.7KEELER VOR/DME116.6000E
PMMr139/17.0PULLMAN VOR/DME112.1000E
VIOr210/35.7VICTORY VOR/DME115.9504W
GIJr036/35.7GIPPER VORTAC115.4000E

 
NDB name  Hdg/Dist  Freq  Var  ID
STURGIS329/32.338204WIRS .. .-. ...

Airport Services

Parking: tiedowns
Airframe service: NONE
Powerplant service: NONE
Bottled oxygen: NONE
Bulk oxygen: NONE

Runway Information

Runway 9/27

Dimensions: 3300 x 100 ft. / 1006 x 30 m
Surface: turf, in good condition
Runway edge markings: RY 09/27 AND DSPLCD THLDS MKD WITH 3 FT YELLOW CONES.
RUNWAY 9  RUNWAY 27
Latitude: 42-15.180333N42-15.177833N
Longitude: 085-51.464667W085-50.733833W
Elevation: 728.0 ft.748.0 ft.
Traffic pattern: leftleft
Displaced threshold: 965 ft.1165 ft.
Obstructions: 69 ft. trees, 60 ft. from runway
APCH RATIO 13:1 AT DSPLCD THLD OVR 77 FT. TREES, 1026 FT. DSTC, 0 BOTH, 20:1 BASED ON STRAIGHT OUT.
70 ft. trees, 30 ft. from runway, 60 ft. left and right of centerline
APCH RATIO 14:1 AT DSPLCD THLD OVR 80 FT TREES, 1192 FT,. DSTC, 0 BOTH; 20:1 BASED ON STRAIGHT OUT.

Airport Ownership and Management from official FAA records

Ownership: Privately-owned
Owner: JAMES MANNING
46236 N 30TH STREET
PAW PAW, MI 49079
Phone 269-657-3839
Manager: JAMES MANNING
46236 N 30TH STREET
PAW PAW, MI 49079
Phone 269-657-3839
MGR CELL 269-384-9491.

Airport Operational Statistics

Aircraft based on the field: 10
Single engine airplanes: 8
Helicopters: 1
Ultralights: 1
    
Aircraft operations: avg 83/month *
50% transient general aviation
50% local general aviation
* for 12-month period ending 31 December 2016

Additional Remarks

OCCASIONAL DEER ON RWY.
ARPT CLSD DEC-MAR AND WHEN SNOW COVERED.
FOR CD CTC GREAT LAKES APCH AT 269-459-3345, WHEN APCH CLSD CTC CHICAGO ARTCC AT 630-906-8921.

Instrument Procedures

There are no published instrument procedures at 2C5.

Some nearby airports with instrument procedures:

KAZO - Kalamazoo/Battle Creek International Airport (13 nm E)
35D - Padgham Field Airport (17 nm N)
KLWA - South Haven Area Regional Airport (19 nm W)
C91 - Dowagiac Municipal Airport (20 nm SW)
KHAI - Three Rivers Municipal Dr Haines Airport (21 nm SE)
 
Loc | Ops | Rwys | IFR | FBO | Links
Com | Nav | Svcs | Stats | Notes
Area around 2C5 (Almena Airport)
 
Road maps at: MapQuest Bing Google
 
Aerial photo
WARNING: Photo may not be current or correct
Aerial photo of 2C5 (Almena Airport)
Photo by Mike Mee
Taken in August 2017
looking west.

Do you have a better or more recent aerial photo of Almena Airport that you would like to share? If so, please send us your photo.

 
Sectional chart

 
Airport distance calculator
Flying to Almena Airport? Find the distance to fly.

From to 2C5

Sunrise and sunset
Times for 07-Apr-2020
 Local
(UTC-4)
 Zulu
(UTC)
Morning civil twilight06:4610:46
Sunrise07:1511:15
Sunset20:1600:16
Evening civil twilight20:4400:44

Current date and time
Zulu (UTC)  07-Apr-2020 11:35:53
Local (UTC-4)  07-Apr-2020 07:35:53
 
METAR
KAZO 
13nm E 
071053Z 00000KT 3SM -RA BR SCT014 BKN027 OVC043 09/07 A2984 RMK AO2 LTG DSNT S RAB0955 SLP107 P0005 T00940072
KLWA 
19nm W 
071116Z AUTO 00000KT 2 1/2SM RA SCT005 OVC025 11/11 A2981 RMK AO2 T01070107
KHAI 
21nm SE 
071116Z AUTO 00000KT 5SM BR BKN011 BKN018 OVC028 12/10 A2985 RMK AO2 T01150102
KBEH 
26nm W 
071100Z AUTO 16004KT 4SM BR FEW025 OVC031 13/12 A2981 RMK AO2 T01330122
TAF
KAZO 
13nm E 
070959Z 0710/0806 16004KT P6SM VCTS FEW013 BKN019 OVC120CB FM071200 17005KT 4SM -SHRA BR OVC009 FM071500 20006KT 3SM BR VCSH OVC005 FM072000 23011G18KT P6SM OVC035 FM072100 24012G19KT P6SM BKN060 FM080000 25010KT P6SM VCTS BKN050CB
NOTAMs
Click for the latest NOTAMs
NOTAMs are issued by the DoD/FAA and will open in a separate window not controlled by AirNav.

 

 
 

Would you like to see your business listed on this page?

 If your business provides an interesting product or service to pilots, flight crews, aircraft, or users of the Almena Airport, you should consider listing it here.  To start the listing process, click on the button below
 
Add a business
 

Other Pages about Almena Airport

Page from the Michigan Airport Directory (PDF)
 
Update a link
 
Copyright © AirNav, LLC. All rights reserved. Privacy Policy  Contact